Weather History for Peru, IL

Change the Weather History Date:

Sunday, December 1, 2013

  Actual Average Record
Temperature  
Mean Temperature 36 °F -  
Max Temperature 45 °F 39 °F 61 °F (2012)
Min Temperature 28 °F 25 °F 11 °F (1966)
Degree Days  
Heating Degree Days 28    
Moisture  
Dew Point 30 °F    
Average Humidity 79    
Maximum Humidity 94    
Minimum Humidity 60    
Precipitation  
Precipitation 0.00 in - - ()
Sea Level Pressure  
Sea Level Pressure 30.05 in    
Wind  
Wind Speed 5 mph (NNE)    
Max Wind Speed 9 mph    
Max Gust Speed -    
Visibility 8 miles    
Events      
Averages and records for this station are not official NWS values.
T = Trace of Precipitation, MM = Missing Value Source: NWS Daily Summary

Daily Weather History Graph

Daily Weather History Graph

Search for Another Location

Airport:

Trip Planner

Search our weather history database for the weather conditions in past years. The results will help you decide how hot, cold, wet, or windy it might be!

Date:

Astronomy

Dec. 01, 2013 Rise Set
Actual Time 7:03 AM CST 4:27 PM CST
Civil Twilight 6:32 AM CST 4:58 PM CST
Nautical Twilight 5:58 AM CST 5:33 PM CST
Astronomical Twilight 5:24 AM CST 6:06 PM CST
Moon 5:20 AM CST (12/1) 3:38 PM CST (12/1)
Length of Visible Light 10h 26m
Length of Day
9h 24m
Waning Crescent, 2% of the Moon is Illuminated
Dec 1
Waning Crescent
Dec 2
New
Dec 9
First Quarter
Dec 17
Full
Dec 25
Last Quarter

Hourly Weather History & Observations

Time (CST) Temp. Windchill Dew Point Humidity Pressure Visibility Wind Dir Wind Speed Gust Speed Precip Events Conditions
12:15 AM 32.0 °F 28.7 °F 29.5 °F 90% 30.07 in 10.0 mi West 3.5 mph - N/A   Clear
12:35 AM 29.1 °F 23.0 °F 26.8 °F 91% 30.07 in 7.0 mi WNW 5.8 mph - N/A   Clear
12:55 AM 30.2 °F 25.4 °F 28.2 °F 92% 30.06 in 7.0 mi West 4.6 mph - N/A   Clear
1:15 AM 30.7 °F 26.0 °F 28.9 °F 93% 30.05 in 7.0 mi WNW 4.6 mph - N/A   Clear
1:35 AM 32.0 °F 26.4 °F 30.0 °F 92% 30.05 in 7.0 mi West 5.8 mph - N/A   Clear
1:55 AM 30.4 °F 24.5 °F 28.0 °F 91% 30.06 in 7.0 mi West 5.8 mph - N/A   Clear
2:15 AM 28.8 °F 23.7 °F 26.8 °F 92% 30.06 in 7.0 mi West 4.6 mph - N/A   Clear
2:35 AM 28.9 °F 21.9 °F 27.1 °F 93% 30.06 in 7.0 mi WNW 6.9 mph - N/A   Clear
2:55 AM 30.7 °F 23.3 °F 29.1 °F 94% 30.07 in 10.0 mi WNW 8.1 mph - N/A   Clear
3:15 AM 31.6 °F 24.4 °F 29.3 °F 91% 30.06 in 7.0 mi WNW 8.1 mph - N/A   Clear
3:35 AM 31.1 °F 23.7 °F 29.1 °F 92% 30.07 in 7.0 mi NW 8.1 mph - N/A   Clear
3:55 AM 31.6 °F 24.4 °F 29.3 °F 91% 30.06 in 7.0 mi NW 8.1 mph - N/A   Clear
4:15 AM 32.0 °F 25.6 °F 29.8 °F 92% 30.07 in 7.0 mi NW 6.9 mph - N/A   Clear
4:35 AM 32.0 °F 26.4 °F 29.8 °F 92% 30.07 in 7.0 mi NW 5.8 mph - N/A   Clear
4:55 AM 31.6 °F 26.0 °F 29.7 °F 92% 30.07 in 7.0 mi NW 5.8 mph - N/A   Clear
5:15 AM 31.6 °F 25.1 °F 29.7 °F 92% 30.08 in 7.0 mi NW 6.9 mph - N/A   Clear
5:35 AM 32.0 °F 25.6 °F 30.2 °F 93% 30.08 in 7.0 mi NW 6.9 mph - N/A   Clear
5:55 AM 32.0 °F 25.6 °F 30.2 °F 93% 30.08 in 7.0 mi NW 6.9 mph - N/A   Clear
6:15 AM 32.0 °F 26.4 °F 30.2 °F 93% 30.08 in 7.0 mi NNW 5.8 mph - N/A   Clear
6:35 AM 32.0 °F 27.5 °F 30.0 °F 92% 30.09 in 7.0 mi NW 4.6 mph - N/A   Clear
6:55 AM 32.0 °F 28.7 °F 29.7 °F 91% 30.09 in 7.0 mi NNE 3.5 mph - N/A   Clear
7:15 AM 32.5 °F 29.3 °F 30.4 °F 92% 30.09 in 7.0 mi North 3.5 mph - N/A   Clear
7:35 AM 32.4 °F 26.9 °F 30.0 °F 91% 30.10 in 7.0 mi North 5.8 mph - N/A   Clear
7:55 AM 32.2 °F 28.9 °F 30.0 °F 92% 30.11 in 5.0 mi NW 3.5 mph - N/A   Clear
8:15 AM 32.5 °F 28.1 °F 30.0 °F 90% 30.11 in 7.0 mi NNW 4.6 mph - N/A   Clear
8:35 AM 33.1 °F 28.7 °F 30.6 °F 90% 30.11 in 7.0 mi North 4.6 mph - N/A   Clear
8:55 AM 34.7 °F 28.8 °F 30.9 °F 86% 30.11 in 7.0 mi NNE 6.9 mph - N/A   Clear
9:15 AM 36.9 °F 30.7 °F 31.3 °F 80% 30.11 in 7.0 mi North 8.1 mph - N/A   Clear
9:35 AM 38.3 °F 31.9 °F 31.3 °F 76% 30.12 in 7.0 mi NNE 9.2 mph - N/A   Clear
9:55 AM 39.6 °F 34.0 °F 31.1 °F 72% 30.12 in 10.0 mi NNE 8.1 mph - N/A   Clear
10:15 AM 40.1 °F 35.3 °F 30.4 °F 68% 30.12 in 7.0 mi NNE 6.9 mph - N/A   Clear
10:35 AM 41.0 °F 38.0 °F 30.7 °F 67% 30.11 in 10.0 mi NNE 4.6 mph - N/A   Clear
10:55 AM 42.1 °F 38.4 °F 30.7 °F 64% 30.10 in 10.0 mi NE 5.8 mph - N/A   Clear
11:15 AM 42.6 °F 39.9 °F 31.1 °F 64% 30.09 in 10.0 mi ENE 4.6 mph - N/A   Clear
11:35 AM 43.2 °F 40.5 °F 31.1 °F 62% 30.09 in 10.0 mi NE 4.6 mph - N/A   Clear
11:55 AM 43.9 °F 41.3 °F 30.9 °F 60% 30.08 in 10.0 mi NNE 4.6 mph - N/A   Clear
12:15 PM 43.7 °F 42.1 °F 31.3 °F 62% 30.08 in 10.0 mi NNE 3.5 mph - N/A   Clear
12:35 PM 44.6 °F 42.2 °F 31.6 °F 60% 30.08 in 10.0 mi NNE 4.6 mph - N/A   Clear
12:55 PM 44.6 °F - 32.0 °F 61% 30.07 in 10.0 mi Calm Calm - N/A   Clear
1:15 PM 44.6 °F - 32.0 °F 61% 30.05 in 10.0 mi Calm Calm - N/A   Clear
1:35 PM 45.0 °F - 31.8 °F 60% 30.05 in 7.0 mi Calm Calm - N/A   Clear
1:55 PM 45.1 °F - 32.0 °F 60% 30.05 in 10.0 mi Calm Calm - N/A   Clear
2:15 PM 45.1 °F - 32.0 °F 60% 30.03 in 10.0 mi Calm Calm - N/A   Clear
2:35 PM 45.1 °F 42.0 °F 32.0 °F 60% 30.03 in 10.0 mi North 5.8 mph - N/A   Clear
2:55 PM 45.0 °F 43.5 °F 32.0 °F 60% 30.03 in 10.0 mi North 3.5 mph - N/A   Clear
3:15 PM 43.9 °F 41.3 °F 31.8 °F 63% 30.03 in 10.0 mi NE 4.6 mph - N/A   Clear
3:35 PM 43.7 °F 42.1 °F 31.6 °F 63% 30.03 in 10.0 mi NNE 3.5 mph - N/A   Clear
3:55 PM 42.3 °F 40.5 °F 31.1 °F 65% 30.02 in 10.0 mi ENE 3.5 mph - N/A   Clear
4:15 PM 39.6 °F 36.3 °F 30.2 °F 69% 30.03 in 10.0 mi NE 4.6 mph - N/A   Clear
4:35 PM 39.6 °F 37.4 °F 30.9 °F 71% 30.03 in 10.0 mi NE 3.5 mph - N/A   Clear
4:55 PM 36.9 °F 33.1 °F 29.8 °F 76% 30.03 in 10.0 mi NE 4.6 mph - N/A   Clear
5:15 PM 38.5 °F 34.1 °F 30.9 °F 74% 30.03 in 10.0 mi NNE 5.8 mph - N/A   Clear
5:35 PM 35.2 °F 30.3 °F 28.2 °F 76% 30.03 in 10.0 mi NE 5.8 mph - N/A   Clear
5:55 PM 35.1 °F 30.1 °F 28.9 °F 78% 30.03 in 10.0 mi NNE 5.8 mph - N/A   Clear
6:15 PM 34.7 °F 30.6 °F 28.9 °F 79% 30.03 in 7.0 mi NNE 4.6 mph - N/A   Clear
6:35 PM 35.6 °F 30.7 °F 29.1 °F 77% 30.02 in 10.0 mi NE 5.8 mph - N/A   Scattered Clouds
6:55 PM 36.1 °F 30.6 °F 29.1 °F 76% 30.03 in 10.0 mi NE 6.9 mph - N/A   Mostly Cloudy
7:15 PM 36.3 °F 30.1 °F 28.9 °F 75% 30.03 in 10.0 mi NE 8.1 mph - N/A   Mostly Cloudy
7:35 PM 35.8 °F 30.1 °F 28.8 °F 76% 30.02 in 10.0 mi NE 6.9 mph - N/A   Mostly Cloudy
7:55 PM 36.0 °F 30.3 °F 28.4 °F 74% 30.02 in 10.0 mi NE 6.9 mph - N/A   Mostly Cloudy
8:15 PM 36.0 °F 29.6 °F 28.4 °F 74% 30.02 in 10.0 mi NE 8.1 mph - N/A   Mostly Cloudy
8:35 PM 36.3 °F 29.5 °F 28.4 °F 73% 30.02 in 10.0 mi NE 9.2 mph - N/A   Mostly Cloudy
8:55 PM 35.6 °F 29.9 °F 29.1 °F 77% 30.02 in 7.0 mi ENE 6.9 mph - N/A   Overcast
9:15 PM 35.6 °F 29.9 °F 29.8 °F 80% 30.02 in 7.0 mi East 6.9 mph - N/A   Overcast
9:35 PM 35.6 °F 31.7 °F 30.2 °F 81% 30.02 in 7.0 mi East 4.6 mph - N/A   Overcast
9:55 PM 35.6 °F 31.7 °F 30.2 °F 81% 30.01 in 7.0 mi East 4.6 mph - N/A   Overcast
10:15 PM 35.1 °F 29.3 °F 30.2 °F 82% 30.00 in 7.0 mi NE 6.9 mph - N/A   Overcast
10:35 PM 35.1 °F 29.3 °F 30.7 °F 84% 30.00 in 5.0 mi NE 6.9 mph - N/A   Overcast
10:55 PM 35.1 °F 30.1 °F 30.9 °F 85% 30.00 in 5.0 mi East 5.8 mph - N/A   Overcast
11:15 PM 35.1 °F 30.1 °F 31.1 °F 85% 29.99 in 5.0 mi ENE 5.8 mph - N/A   Overcast
11:35 PM 35.1 °F 32.2 °F 31.1 °F 85% 29.98 in 5.0 mi East 3.5 mph - N/A   Overcast
11:55 PM 35.2 °F 32.4 °F 31.5 °F 86% 29.98 in 5.0 mi ESE 3.5 mph - N/A   Overcast